Location: Castrojimeno
(41.3966°N, 3.8473°W)
Time: 08:36:13
(UTC+00:00)

Cosmos 2195 Rocket - Pass Details

Date: 15 May 2026
Orbit: 947 x 993 km, 82.9° (Epoch: 5 June)

Event Time Altitude Azimuth Distance (km) Brightness Sun altitude
Rises 22:27:42 0° 351° (N) 3,669 8.7 -24.9°
Reaches altitude 10° 22:30:14 10° 351° (N) 2,712 7.8 -25.1°
Maximum altitude 22:36:27 84° 264° (W) 967 4.4 -25.6°
Enters shadow 22:37:39 60° 185° (S) 1,084 4.4 -25.7°
